STARLINK-31920, 59907

Orbit data source: Space-Track

STARLINK-31920, 59907 is a payload satellite owned by SpaceX/Seattle (US) in LEO that was launched on Tue, 28 May 2024 UTC via an FALCON 9 launch vehicle from the Air Force Eastern Test Range (AFETR). Payload-class satellites include a variety of spacecraft equipped with specific instruments for various scientific and technological missions. These include communications satellites like Starlink; space stations such as the ISS; scientific satellites like the Hubble; Earth observation satellites from companies like Planet Labs, Umbra, and HawkEye 360; GPS; miniature CubeSats for education and research; and military/defense satellites.

Loading next visibility...
Identifier
59907, 2024-100Y
Orbit
LEO
Country
Flag of USUS
Related business
Manufacturer
SpaceX/Seattle
Mission
Operational spacecraft
Bus & Motor
STARLINK V2M, Unknown motor
Mass
730 kg wet, ~700 kg dry
Launch date (UTC)
2024-05-28 (1 year ago)
Launch vehicle
FALCON 9
Launch site
Air Force Eastern Test Range (AFETR)
Object type
Payload
Rocket body
Debris
Shape & HBR
Unknown
Radar Cross Section
Large (>1 m²)

Expand to show TLE details & history
Last TLE update: 1 day ago

TLE from 1 day ago
0 STARLINK-31920
1 59907U 24100Y   25261.31511242  .00004519  00000-0  17364-3 0  9995
2 59907  43.0006 346.4279 0001238 256.2588 103.8126 15.27580814 75150
Epoch: 2025-09-18T07:33Z
TLE epoch observation values (Epoch: 2025-09-18T07:33:45.713Z)
Latitude
0.00001°
Longitude
-124.49104°
Altitude
483.025 km
Speed
7.626 km/s
True Right ascension
23h 05m 42s
True Declination
0° 00' 00"
Sunlit
Object was in full shadow at epoch
Visualization orbit readout
Latitude
Unknown
Longitude
Unknown
Altitude
Unknown
Speed
Unknown
Apparent Right ascension
Unknown
Apparent Declination
Unknown
Sunlit
N/A
Visualization observer readout
Local Sidereal Time
01:11:10
Azimuth
Unknown
Elevation
Unknown
Doppler factor
Unknown
Orbital elements
Apogee altitude
485.841 km
Perigee altitude
484.142 km
Semi-major axis
6,863.129 km
Eccentricity
0.00012
Inclination
43.0006°
RAAN
346.4279°
Arg. of periapsis
256.2588°
True anomaly
103.82638°
Mean anomaly
103.8126°
Eccentric anomaly
103.81949°
Mean motion
3.81733 °/min
Orbital period
94.31 mins
BSTAR
0.00017364
Loading maneuver chart data...
Computing Atmospheric mass density...
Loading historical data...
Loading historical data...
Loading historical data...
Loading historical data...
Loading historical data...
Loading historical data...
Loading historical data...

Documentation

Showing up to 5 results
|